,,,PA_Meas_PMT16A,,PR_Meas_QMR101_102,,RH_Meas_QMH101,,SR_Meas_QMS101,,TA_Meas_QMH101,,GenWind,,GenWind,
date,time,status,PA,status,PR,status,RH,status,SR,status,TA,status,DirAvg,status,SpdAvg,
2008-07-08, 08:32:04,VALID,1007.32,VALID,0,VALID,95.4602,VALID,641.39,VALID,25.4383,VALID,44,VALID,0.546484,
2008-07-08, 08:33:04,VALID,1007.34,VALID,0,VALID,95.5517,VALID,732.199,VALID,25.5746,VALID,38,VALID,0.405859,
2008-07-08, 08:34:04,VALID,1007.32,VALID,0,VALID,95.5441,VALID,697.002,VALID,25.8083,VALID,86,VALID,0.810938,
2008-07-08, 08:35:04,VALID,1007.31,VALID,0,VALID,95.0101,VALID,551.588,VALID,25.9467,VALID,102,VALID,0.986719,
2008-07-08, 08:36:04,VALID,1007.3,VALID,0,VALID,94.2853,VALID,453.338,VALID,26.0246,VALID,104,VALID,1.13008,
2008-07-08, 08:37:04,VALID,1007.29,VALID,0,VALID,93.469,VALID,328.64,VALID,26.0051,VALID,101,VALID,1.08477,
2008-07-08, 08:38:04,VALID,1007.29,VALID,0,VALID,93.7589,VALID,394.508,VALID,26.0051,VALID,79,VALID,0.496875,
2008-07-08, 08:39:04,VALID,1007.26,VALID,0,VALID,93.7055,VALID,568.683,VALID,26.0441,VALID,84,VALID,0.522266,
2008-07-08, 08:40:04,VALID,1007.29,VALID,0,VALID,92.2942,VALID,577.533,VALID,26.0246,VALID,85,VALID,1.08633,
2008-07-08, 08:41:04,VALID,1007.28,VALID,0,VALID,91.9356,VALID,751.004,VALID,26.046,VALID,72,VALID,0.714453,
2008-07-08, 08:42:04,VALID,1007.28,VALID,0,VALID,91.0278,VALID,656.374,VALID,26.0246,VALID,86,VALID,0.896484,
2008-07-08, 08:43:04,VALID,1007.25,VALID,0,VALID,90.6387,VALID,474.255,VALID,26.1005,VALID,89,VALID,1.05234,
2008-07-08, 08:44:04,VALID,1007.27,VALID,0,VALID,90.8066,VALID,674.476,VALID,26.1395,VALID,82,VALID,0.715234,
2008-07-08, 08:45:04,VALID,1007.25,VALID,0,VALID,91.394,VALID,598.148,VALID,26.2973,VALID,92,VALID,0.596484,
2008-07-08, 08:46:04,VALID,1007.28,VALID,0,VALID,91.2109,VALID,525.039,VALID,26.4122,VALID,87,VALID,0.584766,
2008-07-08, 08:47:04,VALID,1007.29,VALID,0,VALID,89.8758,VALID,697.102,VALID,26.5291,VALID,55,VALID,0.792188,
2008-07-08, 08:48:04,VALID,1007.29,VALID,0,VALID,90.1886,VALID,631.133,VALID,26.6285,VALID,17,VALID,0.470313,
2008-07-08, 08:49:04,VALID,1007.34,VALID,0,VALID,89.8758,VALID,714.399,VALID,26.7045,VALID,73,VALID,0.734766,
2008-07-08, 08:50:04,VALID,1007.33,VALID,0,VALID,90.387,VALID,703.84,VALID,26.8624,VALID,71,VALID,0.373047,
2008-07-08, 08:51:04,VALID,1007.36,VALID,0,VALID,88.9604,VALID,694.186,VALID,26.9598,VALID,78,VALID,1.02656,
2008-07-08, 08:52:04,VALID,1007.38,VALID,0,VALID,89.3189,VALID,687.046,VALID,27.0377,VALID,173,VALID,0.324609,
2008-07-08, 08:53:04,VALID,1007.35,VALID,0,VALID,88.6171,VALID,677.09,VALID,27.0942,VALID,176,VALID,0.408203,
2008-07-08, 08:54:04,VALID,1007.36,VALID,0,VALID,90.387,VALID,668.844,VALID,27.1331,VALID,184,VALID,0.0402344,
2008-07-08, 08:55:04,VALID,1007.34,VALID,0,VALID,88.1593,VALID,666.229,VALID,27.1526,VALID,101,VALID,0.657422,
2008-07-08, 08:56:04,VALID,1007.37,VALID,0,VALID,90.242,VALID,472.545,VALID,27.3106,VALID,43,VALID,0.296875,
2008-07-08, 08:57:04,VALID,1007.4,VALID,0,VALID,86.3971,VALID,402.755,VALID,27.2326,VALID,105,VALID,1.51523,
2008-07-08, 08:58:04,VALID,1007.39,VALID,0,VALID,86.9998,VALID,645.413,VALID,27.1547,VALID,122,VALID,0.442578,
2008-07-08, 08:59:04,VALID,1007.38,VALID,0,VALID,87.5261,VALID,661.302,VALID,27.1157,VALID,106,VALID,0.676953,
2008-07-08, 09:00:04,VALID,1007.4,VALID,0,VALID,86.5725,VALID,525.944,VALID,27.1331,VALID,150,VALID,1.15313,
2008-07-08, 09:01:04,VALID,1007.39,VALID,0,VALID,86.9692,VALID,329.645,VALID,27.1352,VALID,126,VALID,0.577344,
2008-07-08, 09:02:04,VALID,1007.36,VALID,0,VALID,86.6412,VALID,200.623,VALID,27.0183,VALID,112,VALID,0.736328,
2008-07-08, 09:03:04,VALID,1007.33,VALID,0,VALID,87.3888,VALID,148.129,VALID,26.9403,VALID,113,VALID,0.504297,
2008-07-08, 09:04:04,VALID,1007.32,VALID,0,VALID,88.2661,VALID,269.71,VALID,26.8624,VALID,79,VALID,0.078125,
2008-07-08, 09:05:04,VALID,1007.32,VALID,0,VALID,88.2738,VALID,596.741,VALID,26.8408,VALID,86,VALID,0.437109,
2008-07-08, 09:06:04,VALID,1007.34,VALID,0,VALID,87.2515,VALID,420.755,VALID,26.9403,VALID,87,VALID,1.075,
2008-07-08, 09:07:04,VALID,1007.34,VALID,0,VALID,88.3043,VALID,666.531,VALID,27.0377,VALID,99,VALID,0.858203,
2008-07-08, 09:08:04,VALID,1007.35,VALID,0,VALID,89.1892,VALID,675.884,VALID,27.2306,VALID,112,VALID,0.544531,
2008-07-08, 09:09:04,VALID,1007.35,VALID,0,VALID,85.2604,VALID,689.46,VALID,27.367,VALID,165,VALID,1.01094,
2008-07-08, 09:10:04,VALID,1007.34,VALID,0,VALID,85.4969,VALID,697.404,VALID,27.367,VALID,203,VALID,0.618359,
2008-07-08, 09:11:04,VALID,1007.31,VALID,0,VALID,86.748,VALID,704.645,VALID,27.367,VALID,177,VALID,0.337891,
2008-07-08, 09:12:04,VALID,1007.3,VALID,0,VALID,86.336,VALID,715.706,VALID,27.4644,VALID,165,VALID,0.733594,
2008-07-08, 09:13:04,VALID,1007.33,VALID,0,VALID,88.2509,VALID,712.991,VALID,27.6419,VALID,192,VALID,1.31992,
2008-07-08, 09:14:04,VALID,1007.31,VALID,0,VALID,84.2686,VALID,717.014,VALID,27.6983,VALID,208,VALID,1.80703,
2008-07-08, 09:15:04,VALID,1007.33,VALID,0,VALID,83.8261,VALID,651.346,VALID,27.7178,VALID,158,VALID,1.71055,
2008-07-08, 09:16:04,VALID,1007.34,VALID,0,VALID,84.1771,VALID,743.361,VALID,27.7004,VALID,187,VALID,1.86641,
2008-07-08, 09:17:04,VALID,1007.38,VALID,0,VALID,84.3678,VALID,147.425,VALID,27.6008,VALID,155,VALID,1.00312,
2008-07-08, 09:18:04,VALID,1007.4,VALID,0,VALID,82.6208,VALID,142.498,VALID,27.5229,VALID,188,VALID,2.03242,
2008-07-08, 09:19:04,VALID,1007.4,VALID,0,VALID,83.4676,VALID,167.84,VALID,27.289,VALID,168,VALID,1.46016,
2008-07-08, 09:20:04,VALID,1007.38,VALID,0,VALID,84.3754,VALID,199.718,VALID,27.1936,VALID,175,VALID,1.96914,
2008-07-08, 09:21:04,VALID,1007.36,VALID,0,VALID,86.0233,VALID,218.724,VALID,27.0183,VALID,186,VALID,1.55859,
2008-07-08, 09:22:04,VALID,1007.33,VALID,0,VALID,86.1453,VALID,208.266,VALID,26.9578,VALID,160,VALID,1.17617,
2008-07-08, 09:23:04,VALID,1007.31,VALID,0,VALID,86.481,VALID,209.975,VALID,26.9208,VALID,174,VALID,1.18398,
2008-07-08, 09:24:04,VALID,1007.28,VALID,0,VALID,86.4581,VALID,235.217,VALID,26.9208,VALID,163,VALID,1.5207,
2008-07-08, 09:25:04,VALID,1007.29,VALID,0,VALID,85.9927,VALID,278.358,VALID,26.8819,VALID,208,VALID,1.17266,
2008-07-08, 09:26:04,VALID,1007.29,VALID,0,VALID,87.5643,VALID,348.652,VALID,26.8214,VALID,178,VALID,0.528125,
2008-07-08, 09:27:04,VALID,1007.29,VALID,0,VALID,87.694,VALID,422.163,VALID,26.8408,VALID,193,VALID,0.261328,
2008-07-08, 09:28:04,VALID,1007.24,VALID,0,VALID,87.2286,VALID,836.281,VALID,26.9403,VALID,214,VALID,0.569922,
2008-07-08, 09:29:04,VALID,1007.22,VALID,0,VALID,87.0608,VALID,433.929,VALID,27.1116,VALID,177,VALID,1.26055,
2008-07-08, 09:30:04,VALID,1007.24,VALID,0,VALID,86.0004,VALID,604.987,VALID,27.2111,VALID,187,VALID,1.55117,
2008-07-08, 09:31:04,VALID,1007.22,VALID,0,VALID,84.6043,VALID,582.561,VALID,27.2306,VALID,202,VALID,1.25586,
2008-07-08, 09:32:04,VALID,1007.21,VALID,0,VALID,85.2451,VALID,767.597,VALID,27.25,VALID,219,VALID,0.544922,
2008-07-08, 09:33:04,VALID,1007.17,VALID,0,VALID,82.7123,VALID,157.482,VALID,27.3865,VALID,216,VALID,1.0293,
2008-07-08, 09:34:04,VALID,1007.19,VALID,0,VALID,83.9863,VALID,402.553,VALID,27.4059,VALID,170,VALID,1.44883,
2008-07-08, 09:35:04,VALID,1007.17,VALID,0,VALID,82.4453,VALID,727.774,VALID,27.3301,VALID,203,VALID,1.10703,
2008-07-08, 09:36:04,VALID,1007.13,VALID,0,VALID,86.1758,VALID,731.897,VALID,27.367,VALID,184,VALID,0.796094,
2008-07-08, 09:37:04,VALID,1007.12,VALID,0,VALID,84.9934,VALID,734.612,VALID,27.4839,VALID,131,VALID,0.617578,
2008-07-08, 09:38:04,VALID,1007.09,VALID,0,VALID,84.3373,VALID,727.875,VALID,27.6398,VALID,166,VALID,1.3082,
2008-07-08, 09:39:04,VALID,1007.06,VALID,0,VALID,82.6513,VALID,724.455,VALID,27.7199,VALID,217,VALID,0.980078,
2008-07-08, 09:40:04,VALID,1007.07,VALID,0,VALID,80.622,VALID,722.444,VALID,27.6983,VALID,178,VALID,2.05508,
2008-07-08, 09:41:04,VALID,1006.99,VALID,0,VALID,78.6995,VALID,731.394,VALID,27.7178,VALID,211,VALID,1.58477,
2008-07-08, 09:42:04,VALID,1007,VALID,0,VALID,77.8451,VALID,736.422,VALID,27.6983,VALID,201,VALID,1.87969,
2008-07-08, 09:43:04,VALID,1006.98,VALID,0,VALID,78.7987,VALID,731.193,VALID,27.6788,VALID,198,VALID,1.01328,
2008-07-08, 09:44:04,VALID,1006.99,VALID,0,VALID,77.4942,VALID,723.55,VALID,27.7372,VALID,192,VALID,1.80898,
2008-07-08, 09:45:04,VALID,1007.03,VALID,0,VALID,81.7511,VALID,720.332,VALID,27.7762,VALID,183,VALID,0.955859,
2008-07-08, 09:46:04,VALID,1006.98,VALID,0,VALID,78.7453,VALID,725.964,VALID,27.8152,VALID,170,VALID,1.86797,
2008-07-08, 09:47:04,VALID,1007,VALID,0,VALID,79.4624,VALID,731.294,VALID,27.8152,VALID,179,VALID,2.16953,
2008-07-08, 09:48:04,VALID,1006.95,VALID,0,VALID,77.9824,VALID,738.534,VALID,27.9321,VALID,165,VALID,1.71875,
2008-07-08, 09:49:04,VALID,1006.92,VALID,0,VALID,80.1032,VALID,505.53,VALID,27.9927,VALID,183,VALID,1.48867,
2008-07-08, 09:50:04,VALID,1006.96,VALID,0,VALID,77.9214,VALID,742.356,VALID,27.9906,VALID,147,VALID,1.97227,
2008-07-08, 09:51:04,VALID,1006.97,VALID,0,VALID,78.3791,VALID,739.741,VALID,28.1487,VALID,117,VALID,1.41016,
2008-07-08, 09:52:04,VALID,1006.96,VALID,0,VALID,81.6824,VALID,741.953,VALID,28.3631,VALID,147,VALID,0.866797,
2008-07-08, 09:53:04,VALID,1006.96,VALID,0,VALID,76.2964,VALID,723.249,VALID,28.5191,VALID,207,VALID,2.00781,
2008-07-08, 09:54:04,VALID,1006.95,VALID,0,VALID,76.5787,VALID,746.982,VALID,28.4996,VALID,196,VALID,1.36328,
2008-07-08, 09:55:04,VALID,1006.91,VALID,0,VALID,76.3193,VALID,694.085,VALID,28.4974,VALID,192,VALID,2.67578,
2008-07-08, 09:56:04,VALID,1006.93,VALID,0,VALID,76.2049,VALID,330.651,VALID,28.4216,VALID,150,VALID,1.79023,
2008-07-08, 09:57:04,VALID,1006.96,VALID,0,VALID,77.0593,VALID,753.116,VALID,28.4216,VALID,140,VALID,2.33633,
2008-07-08, 09:58:04,VALID,1006.94,VALID,0,VALID,74.7859,VALID,755.228,VALID,28.3415,VALID,168,VALID,1.95859,
2008-07-08, 09:59:04,VALID,1006.99,VALID,0,VALID,76.0065,VALID,751.306,VALID,28.3436,VALID,197,VALID,1.51328,
2008-07-08, 10:00:04,VALID,1006.95,VALID,0,VALID,76.7923,VALID,751.809,VALID,28.361,VALID,184,VALID,2.10625,
2008-07-08, 10:01:04,VALID,1006.93,VALID,0,VALID,75.0682,VALID,754.222,VALID,28.4389,VALID,146,VALID,0.564062,
2008-07-08, 10:02:04,VALID,1006.93,VALID,0,VALID,75.8921,VALID,752.714,VALID,28.5971,VALID,131,VALID,1.65469,
2008-07-08, 10:03:04,VALID,1006.94,VALID,0,VALID,73.0008,VALID,756.636,VALID,28.5559,VALID,185,VALID,2.93984,
2008-07-08, 10:04:04,VALID,1006.93,VALID,0,VALID,71.6504,VALID,760.558,VALID,28.4996,VALID,170,VALID,1.86563,
2008-07-08, 10:05:04,VALID,1006.93,VALID,0,VALID,74.4808,VALID,764.882,VALID,28.4411,VALID,130,VALID,1.60703,
2008-07-08, 10:06:04,VALID,1006.93,VALID,0,VALID,74.2137,VALID,769.206,VALID,28.6166,VALID,148,VALID,2.61094,
2008-07-08, 10:07:04,VALID,1006.9,VALID,0,VALID,71.1698,VALID,773.932,VALID,28.6534,VALID,131,VALID,2.15039,
2008-07-08, 10:08:04,VALID,1006.9,VALID,0,VALID,70.674,VALID,745.373,VALID,28.5364,VALID,123,VALID,1.36836,
2008-07-08, 10:09:04,VALID,1006.87,VALID,0,VALID,74.0917,VALID,751.909,VALID,28.5754,VALID,168,VALID,0.98125,
2008-07-08, 10:10:04,VALID,1006.86,VALID,0,VALID,72.7795,VALID,758.546,VALID,28.7704,VALID,184,VALID,1.1457,
2008-07-08, 10:11:04,VALID,1006.86,VALID,0,VALID,72.4057,VALID,759.451,VALID,28.9263,VALID,194,VALID,0.755078,
2008-07-08, 10:12:04,VALID,1006.83,VALID,0,VALID,69.5601,VALID,763.474,VALID,28.9068,VALID,110,VALID,2.51406,
2008-07-08, 10:13:04,VALID,1006.82,VALID,0,VALID,71.3071,VALID,765.485,VALID,28.6729,VALID,116,VALID,2.07422,
2008-07-08, 10:14:04,VALID,1006.82,VALID,0,VALID,71.5894,VALID,769.206,VALID,28.6729,VALID,182,VALID,1.6668,
2008-07-08, 10:15:04,VALID,1006.8,VALID,0,VALID,73.0542,VALID,772.927,VALID,28.6729,VALID,166,VALID,1.35312,
2008-07-08, 10:16:04,VALID,1006.75,VALID,0,VALID,77.6773,VALID,776.346,VALID,28.8093,VALID,153,VALID,1.92734,
2008-07-08, 10:17:04,VALID,1006.74,VALID,0,VALID,73.6034,VALID,782.38,VALID,28.9263,VALID,148,VALID,1.60781,
2008-07-08, 10:18:04,VALID,1006.72,VALID,0,VALID,72.8863,VALID,775.642,VALID,28.9263,VALID,183,VALID,2.08789,
2008-07-08, 10:19:04,VALID,1006.7,VALID,0,VALID,71.7496,VALID,779.664,VALID,28.9436,VALID,188,VALID,2.38555,
2008-07-08, 10:20:04,VALID,1006.7,VALID,0,VALID,70.7121,VALID,781.977,VALID,28.9263,VALID,183,VALID,2.67891,
2008-07-08, 10:21:04,VALID,1006.67,VALID,0,VALID,71.2843,VALID,784.492,VALID,28.8093,VALID,176,VALID,3.09922,
2008-07-08, 10:22:04,VALID,1006.65,VALID,0,VALID,74.4197,VALID,784.492,VALID,28.6729,VALID,146,VALID,2.44492,
2008-07-08, 10:23:04,VALID,1006.62,VALID,0,VALID,73.756,VALID,785.799,VALID,28.6729,VALID,147,VALID,1.68711,
2008-07-08, 10:24:04,VALID,1006.61,VALID,0,VALID,71.3987,VALID,784.994,VALID,28.7509,VALID,198,VALID,1.74219,
2008-07-08, 10:25:04,VALID,1006.56,VALID,0,VALID,71.6047,VALID,790.928,VALID,28.7292,VALID,190,VALID,0.888281,
2008-07-08, 10:26:04,VALID,1006.58,VALID,0,VALID,73.695,VALID,798.369,VALID,28.7704,VALID,147,VALID,1.62031,
2008-07-08, 10:27:04,VALID,1006.6,VALID,0,VALID,72.6956,VALID,808.325,VALID,28.7704,VALID,112,VALID,2.28555,
2008-07-08, 10:28:04,VALID,1006.55,VALID,0,VALID,70.9867,VALID,806.817,VALID,28.8093,VALID,123,VALID,1.225,
2008-07-08, 10:29:04,VALID,1006.54,VALID,0,VALID,71.948,VALID,807.319,VALID,28.8093,VALID,172,VALID,1.71992,
2008-07-08, 10:30:04,VALID,1006.54,VALID,0,VALID,71.8564,VALID,804.504,VALID,28.7898,VALID,153,VALID,2.10313,
2008-07-08, 10:31:04,VALID,1006.49,VALID,0,VALID,72.2913,VALID,804.504,VALID,28.7898,VALID,200,VALID,2.30469,
2008-07-08, 10:32:04,VALID,1006.48,VALID,0,VALID,70.8418,VALID,805.006,VALID,28.7704,VALID,183,VALID,1.83359,
2008-07-08, 10:33:04,VALID,1006.48,VALID,0,VALID,73.9315,VALID,808.124,VALID,28.7119,VALID,176,VALID,2.31602,
2008-07-08, 10:34:04,VALID,1006.48,VALID,0,VALID,71.4902,VALID,804.604,VALID,28.7509,VALID,170,VALID,0.979688,
2008-07-08, 10:35:04,VALID,1006.46,VALID,0,VALID,72.3828,VALID,805.208,VALID,28.8288,VALID,141,VALID,2.26563,
2008-07-08, 10:36:04,VALID,1006.44,VALID,0,VALID,71.7878,VALID,807.319,VALID,28.7898,VALID,166,VALID,1.65508,
2008-07-08, 10:37:04,VALID,1006.41,VALID,0,VALID,73.55,VALID,809.632,VALID,28.8288,VALID,141,VALID,2.04102,
2008-07-08, 10:38:04,VALID,1006.38,VALID,0,VALID,71.7572,VALID,813.856,VALID,28.8873,VALID,108,VALID,1.54141,
2008-07-08, 10:39:04,VALID,1006.37,VALID,0,VALID,74.5036,VALID,811.744,VALID,28.9241,VALID,154,VALID,2.16602,
2008-07-08, 10:40:04,VALID,1006.34,VALID,0,VALID,71.5589,VALID,830.047,VALID,29.0238,VALID,212,VALID,1.54336,
2008-07-08, 10:41:04,VALID,1006.35,VALID,0,VALID,73.9467,VALID,828.236,VALID,29.0043,VALID,165,VALID,1.40625,
2008-07-08, 10:42:04,VALID,1006.36,VALID,0,VALID,70.7045,VALID,825.32,VALID,29.1213,VALID,167,VALID,1.47969,
2008-07-08, 10:43:04,VALID,1006.33,VALID,0,VALID,71.4139,VALID,826.728,VALID,29.1993,VALID,126,VALID,2.05703,
2008-07-08, 10:44:04,VALID,1006.3,VALID,0,VALID,70.6587,VALID,833.969,VALID,29.2188,VALID,199,VALID,2.35938,
2008-07-08, 10:45:04,VALID,1006.33,VALID,0,VALID,72.543,VALID,837.287,VALID,29.1776,VALID,191,VALID,1.77461,
2008-07-08, 10:46:04,VALID,1006.32,VALID,0,VALID,71.7496,VALID,853.679,VALID,29.1798,VALID,186,VALID,2.31836,
2008-07-08, 10:47:04,VALID,1006.33,VALID,0,VALID,70.3535,VALID,861.824,VALID,29.1213,VALID,162,VALID,2.44297,
2008-07-08, 10:48:04,VALID,1006.29,VALID,0,VALID,71.3224,VALID,881.133,VALID,29.1581,VALID,173,VALID,2.82813,
2008-07-08, 10:49:04,VALID,1006.28,VALID,0,VALID,70.3307,VALID,905.972,VALID,29.1408,VALID,183,VALID,1.87656,
2008-07-08, 10:50:04,VALID,1006.29,VALID,0,VALID,70.7579,VALID,334.171,VALID,29.1798,VALID,148,VALID,3.0418,
2008-07-08, 10:51:04,VALID,1006.27,VALID,0,VALID,71.6657,VALID,393.201,VALID,29.0628,VALID,175,VALID,2.57461,
2008-07-08, 10:52:04,VALID,1006.28,VALID,0,VALID,72.2226,VALID,913.313,VALID,28.9631,VALID,171,VALID,2.87812,
2008-07-08, 10:53:04,VALID,1006.3,VALID,0,VALID,72.5735,VALID,898.329,VALID,29.026,VALID,179,VALID,1.7082,
2008-07-08, 10:54:04,VALID,1006.29,VALID,0,VALID,70.2849,VALID,896.72,VALID,29.1408,VALID,157,VALID,2.10742,
2008-07-08, 10:55:04,VALID,1006.26,VALID,0,VALID,69.8805,VALID,897.021,VALID,29.1603,VALID,203,VALID,2.07266,
2008-07-08, 10:56:04,VALID,1006.29,VALID,0,VALID,74.6867,VALID,878.015,VALID,29.2405,VALID,185,VALID,1.53008,
2008-07-08, 10:57:04,VALID,1006.27,VALID,0,VALID,70.5595,VALID,887.87,VALID,29.1993,VALID,180,VALID,3.18477,
2008-07-08, 10:58:04,VALID,1006.24,VALID,0,VALID,70.9715,VALID,856.092,VALID,29.1235,VALID,181,VALID,2.88867,
2008-07-08, 10:59:04,VALID,1006.21,VALID,0,VALID,73.6645,VALID,892.798,VALID,29.0216,VALID,190,VALID,1.95234,
2008-07-08, 11:00:04,VALID,1006.18,VALID,0,VALID,72.2302,VALID,885.758,VALID,29.0628,VALID,148,VALID,2.05938,
2008-07-08, 11:01:04,VALID,1006.18,VALID,0,VALID,71.6886,VALID,947.001,VALID,29.143,VALID,215,VALID,2.04297,
2008-07-08, 11:02:04,VALID,1006.16,VALID,0,VALID,70.468,VALID,788.212,VALID,29.2405,VALID,203,VALID,2.52305,
2008-07-08, 11:03:04,VALID,1006.18,VALID,0,VALID,71.2614,VALID,914.721,VALID,29.026,VALID,204,VALID,2.17266,
2008-07-08, 11:04:04,VALID,1006.15,VALID,0,VALID,72.894,VALID,886.563,VALID,28.909,VALID,177,VALID,2.3168,
2008-07-08, 11:05:04,VALID,1006.12,VALID,0,VALID,72.3065,VALID,885.256,VALID,28.909,VALID,195,VALID,2.29258,
2008-07-08, 11:06:04,VALID,1006.15,VALID,0,VALID,71.7649,VALID,899.334,VALID,29.0282,VALID,182,VALID,2.44844,
2008-07-08, 11:07:04,VALID,1006.15,VALID,0,VALID,70.9333,VALID,903.055,VALID,29.0455,VALID,201,VALID,2.66172,
2008-07-08, 11:08:04,VALID,1006.17,VALID,0,VALID,75.2742,VALID,893.2,VALID,29.104,VALID,191,VALID,2.05117,
2008-07-08, 11:09:04,VALID,1006.16,VALID,0,VALID,74.1909,VALID,890.485,VALID,29.299,VALID,195,VALID,1.33516,
2008-07-08, 11:10:04,VALID,1006.16,VALID,0,VALID,72.0548,VALID,896.116,VALID,29.2405,VALID,163,VALID,1.92852,
2008-07-08, 11:11:04,VALID,1006.11,VALID,0,VALID,74.1527,VALID,889.077,VALID,29.2015,VALID,152,VALID,1.6543,
2008-07-08, 11:12:04,VALID,1006.1,VALID,0,VALID,71.6199,VALID,885.557,VALID,29.3965,VALID,159,VALID,2.35547,
2008-07-08, 11:13:04,VALID,1006.07,VALID,0,VALID,75.7319,VALID,884.853,VALID,29.4745,VALID,147,VALID,1.67227,
2008-07-08, 11:14:04,VALID,1006.07,VALID,0,VALID,72.3294,VALID,885.256,VALID,29.6305,VALID,162,VALID,1.55,
2008-07-08, 11:15:04,VALID,1006.07,VALID,0,VALID,72.6041,VALID,887.77,VALID,29.689,VALID,162,VALID,1.76719,
2008-07-08, 11:16:04,VALID,1006.03,VALID,0,VALID,71.0859,VALID,881.535,VALID,29.5503,VALID,187,VALID,2.30977,
2008-07-08, 11:17:04,VALID,1005.98,VALID,0,VALID,71.3834,VALID,869.367,VALID,29.2968,VALID,157,VALID,2.22266,
2008-07-08, 11:18:04,VALID,1006,VALID,0,VALID,73.695,VALID,809.733,VALID,29.2795,VALID,180,VALID,1.7207,
2008-07-08, 11:19:04,VALID,1005.97,VALID,0,VALID,73.8781,VALID,816.169,VALID,29.2578,VALID,130,VALID,2.79297,
2008-07-08, 11:20:04,VALID,1005.94,VALID,0,VALID,72.0014,VALID,845.332,VALID,29.3748,VALID,171,VALID,2.02461,
2008-07-08, 11:21:04,VALID,1005.93,VALID,0,VALID,72.3142,VALID,867.154,VALID,29.2578,VALID,137,VALID,3.34766,
2008-07-08, 11:22:04,VALID,1005.93,VALID,0,VALID,74.1222,VALID,726.567,VALID,29.3943,VALID,148,VALID,0.865625,
2008-07-08, 11:23:04,VALID,1005.91,VALID,0,VALID,72.7032,VALID,880.328,VALID,29.4745,VALID,171,VALID,2.55078,
2008-07-08, 11:24:04,VALID,1005.91,VALID,0,VALID,72.1311,VALID,863.635,VALID,29.3553,VALID,201,VALID,3.30039,
2008-07-08, 11:25:04,VALID,1005.89,VALID,0,VALID,74.2519,VALID,859.612,VALID,29.2578,VALID,163,VALID,1.45664,
2008-07-08, 11:26:04,VALID,1005.85,VALID,0,VALID,73.5272,VALID,878.719,VALID,29.2773,VALID,174,VALID,1.3918,
2008-07-08, 11:27:04,VALID,1005.86,VALID,0,VALID,72.009,VALID,868.462,VALID,29.3748,VALID,182,VALID,2.94648,
2008-07-08, 11:28:04,VALID,1005.86,VALID,0,VALID,67.8284,VALID,844.528,VALID,29.3748,VALID,177,VALID,2.89609,
2008-07-08, 11:29:04,VALID,1005.82,VALID,0,VALID,70.323,VALID,852.07,VALID,29.2383,VALID,172,VALID,2.29414,
2008-07-08, 11:30:04,VALID,1005.82,VALID,0,VALID,70.9181,VALID,833.265,VALID,29.2015,VALID,170,VALID,2.26953,
2008-07-08, 11:31:04,VALID,1005.8,VALID,0,VALID,71.4292,VALID,848.349,VALID,29.3012,VALID,179,VALID,2.47266,
2008-07-08, 11:32:04,VALID,1005.77,VALID,0,VALID,72.6193,VALID,864.339,VALID,29.221,VALID,173,VALID,1.2043,
2008-07-08, 11:33:04,VALID,1005.76,VALID,0,VALID,73.3669,VALID,860.316,VALID,29.2795,VALID,202,VALID,1.99375,
2008-07-08, 11:34:04,VALID,1005.75,VALID,0,VALID,69.8805,VALID,858.707,VALID,29.1603,VALID,180,VALID,2.11328,
2008-07-08, 11:35:04,VALID,1005.72,VALID,0,VALID,70.117,VALID,862.327,VALID,29.1235,VALID,185,VALID,2.00859,
2008-07-08, 11:36:04,VALID,1005.73,VALID,0,VALID,70.323,VALID,875.3,VALID,29.104,VALID,161,VALID,2.62383,
2008-07-08, 11:37:04,VALID,1005.65,VALID,0,VALID,72.5278,VALID,876.305,VALID,29.065,VALID,137,VALID,2.49805,
2008-07-08, 11:38:04,VALID,1005.65,VALID,0,VALID,72.1463,VALID,887.367,VALID,29.1625,VALID,206,VALID,2.04688,
2008-07-08, 11:39:04,VALID,1005.62,VALID,0,VALID,73.1686,VALID,764.178,VALID,29.26,VALID,177,VALID,2.0668,
2008-07-08, 11:40:04,VALID,1005.6,VALID,0,VALID,71.1469,VALID,893.099,VALID,29.26,VALID,200,VALID,2.17656,
2008-07-08, 11:41:04,VALID,1005.6,VALID,0,VALID,72.1616,VALID,880.429,VALID,29.065,VALID,175,VALID,1.99805,
2008-07-08, 11:42:04,VALID,1005.61,VALID,0,VALID,70.9486,VALID,901.346,VALID,29.0628,VALID,183,VALID,3.11523,
2008-07-08, 11:43:04,VALID,1005.56,VALID,0,VALID,71.3987,VALID,905.972,VALID,29.0845,VALID,200,VALID,2.96133,
2008-07-08, 11:44:04,VALID,1005.57,VALID,0,VALID,71.4979,VALID,910.095,VALID,28.9697,VALID,169,VALID,1.92734,
2008-07-08, 11:45:04,VALID,1005.6,VALID,0,VALID,73.0618,VALID,912.91,VALID,29.026,VALID,175,VALID,2.10313,
2008-07-08, 11:46:04,VALID,1005.56,VALID,0,VALID,75.6098,VALID,918.944,VALID,29.26,VALID,140,VALID,2.87734,
2008-07-08, 11:47:04,VALID,1005.55,VALID,0,VALID,69.7814,VALID,929.403,VALID,29.3943,VALID,209,VALID,1.9043,
2008-07-08, 11:48:04,VALID,1005.54,VALID,0,VALID,69.8119,VALID,927.593,VALID,29.4745,VALID,210,VALID,1.48594,
2008-07-08, 11:49:04,VALID,1005.58,VALID,0,VALID,69.0566,VALID,923.972,VALID,29.6088,VALID,146,VALID,2.29102,
2008-07-08, 11:50:04,VALID,1005.56,VALID,0,VALID,71.7954,VALID,918.643,VALID,29.5698,VALID,158,VALID,2.67383,
2008-07-08, 11:51:04,VALID,1005.54,VALID,0,VALID,70.0026,VALID,917.838,VALID,29.4138,VALID,137,VALID,2.59219,
2008-07-08, 11:52:04,VALID,1005.53,VALID,0,VALID,71.1241,VALID,916.732,VALID,29.4528,VALID,165,VALID,1.36211,
2008-07-08, 11:53:04,VALID,1005.53,VALID,0,VALID,69.3236,VALID,916.028,VALID,29.5113,VALID,163,VALID,2.60703,
2008-07-08, 11:54:04,VALID,1005.5,VALID,0,VALID,71.0401,VALID,903.156,VALID,29.4528,VALID,177,VALID,1.88164,
2008-07-08, 11:55:04,VALID,1005.51,VALID,0,VALID,69.8271,VALID,917.637,VALID,29.3943,VALID,182,VALID,2.42461,
2008-07-08, 11:56:04,VALID,1005.52,VALID,0,VALID,72.8787,VALID,916.933,VALID,29.2773,VALID,175,VALID,2.44219,
2008-07-08, 11:57:04,VALID,1005.53,VALID,0,VALID,72.421,VALID,919.145,VALID,29.3748,VALID,199,VALID,2.11875,
2008-07-08, 11:58:04,VALID,1005.47,VALID,0,VALID,70.8647,VALID,924.073,VALID,29.4505,VALID,144,VALID,2.75586,
2008-07-08, 11:59:04,VALID,1005.51,VALID,0,VALID,72.1234,VALID,603.076,VALID,29.4918,VALID,182,VALID,2.70742,
2008-07-08, 12:00:04,VALID,1005.51,VALID,0,VALID,72.7566,VALID,923.671,VALID,29.4333,VALID,156,VALID,1.89609,
2008-07-08, 12:01:04,VALID,1005.52,VALID,0,VALID,68.3166,VALID,925.079,VALID,29.494,VALID,160,VALID,2.67266,
2008-07-08, 12:02:04,VALID,1005.5,VALID,0,VALID,70.8189,VALID,934.129,VALID,29.416,VALID,134,VALID,2.85469,
2008-07-08, 12:03:04,VALID,1005.51,VALID,0,VALID,68.3624,VALID,922.464,VALID,29.4723,VALID,189,VALID,3.29414,
2008-07-08, 12:04:04,VALID,1005.46,VALID,0,VALID,69.5449,VALID,909.894,VALID,29.3965,VALID,164,VALID,2.30508,
2008-07-08, 12:05:04,VALID,1005.48,VALID,0,VALID,70.2849,VALID,891.39,VALID,29.299,VALID,150,VALID,2.3125,
2008-07-08, 12:06:04,VALID,1005.45,VALID,0,VALID,73.077,VALID,831.756,VALID,29.2405,VALID,185,VALID,1.96055,